This is the latest recevied weather packets stored in our database for station/object IZ2WMD-13. If no packets are shown the sender has not sent any weather packets the latest 10 day(s).
| Time | Temp. | Humidity | Pressure | Rain* | Wind** | Luminosity | Snow |
|---|---|---|---|---|---|---|---|
| 1777521943 | 12.22° C | 85% | 1021.3 hPa | - | - | - | - |
| 1777519534 | 11.67° C | 86% | 1021.1 hPa | - | - | - | - |
| 1777518329 | 12.22° C | 90% | 1021.2 hPa | - | - | - | - |
| 1777517125 | 12.22° C | 90% | 1021.2 hPa | - | - | - | - |
| 1777515920 | 12.22° C | 90% | 1021.1 hPa | - | - | - | - |
| 1777513511 | 12.22° C | 90% | 1021 hPa | - | - | - | - |
| 1777512307 | 12.22° C | 93% | 1021 hPa | - | - | - | - |
| 1777511102 | 12.78° C | 94% | 1020.9 hPa | - | - | - | - |
| 1777509898 | 12.78° C | 93% | 1020.8 hPa | - | - | - | - |
| 1777508693 | 12.78° C | 92% | 1020.9 hPa | - | - | - | - |
| 1777507489 | 12.78° C | 92% | 1020.5 hPa | - | - | - | - |
| 1777506285 | 12.78° C | 90% | 1020.3 hPa | - | - | - | - |
| 1777505080 | 13.33° C | 90% | 1020 hPa | - | - | - | - |
| 1777503875 | 13.89° C | 90% | 1019.7 hPa | - | - | - | - |
| 1777502671 | 13.33° C | 88% | 1019.5 hPa | - | - | - | - |
| 1777501466 | 13.89° C | 85% | 1019.4 hPa | - | - | - | - |
| 1777500262 | 14.44° C | 80% | 1018.8 hPa | - | - | - | - |
| 1777497853 | 15.56° C | 66% | 1018.1 hPa | - | - | - | - |
| 1777496648 | 15.56° C | 66% | 1017.6 hPa | - | - | - | - |
| 1777494239 | 16.11° C | 64% | 1017.3 hPa | - | - | - | - |
| 1777493034 | 16.11° C | 65% | 1017.2 hPa | - | - | - | - |
| 1777490626 | 16.67° C | 65% | 1016.5 hPa | - | - | - | - |
| 1777489421 | 17.22° C | 63% | 1016.1 hPa | - | - | - | - |
| 1777488217 | 17.22° C | 63% | 1015.8 hPa | - | - | - | - |
| 1777485808 | 17.78° C | 65% | 1015.1 hPa | - | - | - | - |
* Rain since midnight (hover to see other rain measurements)
** Current wind speed in m/s (hover to see current wind gust speed)